{"data":{"norad_id":62955,"epoch":"2026-09-21T15:37:31.596096Z","epoch_age_seconds":65683,"freshness":"FRESH","line1":"1 62955U 25029H   26264.65106014  .00019533  00000+0  63935-3 0  9997","line2":"2 62955  53.1615  40.5703 0001172  76.9718 283.1414 15.31710349 91353","mean_motion":15.31710349,"eccentricity":0.0001172,"inclination_deg":53.1615,"raan_deg":40.5703,"arg_perigee_deg":76.9718,"mean_anomaly_deg":283.1414,"bstar":0.00063935,"rev_number":9135,"period_min":94.012552761044,"perigee_km":469.9064608006,"apogee_km":471.51183033713,"semimajor_km":6848.8461455689,"source":"CELESTRAK","updated_at":"2026-09-22T09:00:49.712400Z"}}